Location: Peterborough
(44.3091°N, 78.3197°W)
Time: 01:50:34
(UTC-04:00)

S-56A Canister/Altair - Pass Details

Date: 29 March 2023
Orbit: 639 x 2492 km, 38.9° (Epoch: 02 June)

Event Time Altitude Azimuth Distance (km) Brightness Sun altitude
Rises 21:45:05 0° 268° (W) 5,140 12.7 -22.6°
Reaches altitude 10° 21:48:07 10° 266° (W) 4,355 12.1 -23.0°
Maximum altitude 22:00:36 69° 187° (S) 2,486 9.8 -24.9°
Enters shadow 22:08:00 37° 117° (ESE) 3,420 10.2 -26.0°
